This is the latest recevied weather packets stored in our database for station/object DK4DO-10. If no packets are shown the sender has not sent any weather packets the latest 1 day(s).
| Time | Temp. | Humidity | Pressure | Rain* | Wind** | Luminosity | Snow |
|---|---|---|---|---|---|---|---|
| 1778077389 | 12.78° C | 47% | 1002.9 hPa | - | - | - | - |
| 1778076789 | 12.78° C | 48% | 1003 hPa | - | - | - | - |
| 1778074388 | 12.22° C | 47% | 1002.9 hPa | - | - | - | - |
| 1778071987 | 12.22° C | 47% | 1002.7 hPa | - | - | - | - |
| 1778071387 | 12.22° C | 47% | 1002.8 hPa | - | - | - | - |
| 1778069595 | 12.22° C | 47% | 1002.5 hPa | - | - | - | - |
| 1778067194 | 12.22° C | 48% | 1002.4 hPa | - | - | - | - |
| 1778064793 | 12.78° C | 46% | 1002.2 hPa | - | - | - | - |
| 1778064193 | 12.78° C | 46% | 1002.1 hPa | - | - | - | - |
| 1778063593 | 12.78° C | 46% | 1002.1 hPa | - | - | - | - |
| 1778062992 | 13.33° C | 45% | 1002 hPa | - | - | - | - |
| 1778062392 | 13.89° C | 45% | 1001.8 hPa | - | - | - | - |
| 1778061192 | 13.89° C | 44% | 1001.7 hPa | - | - | - | - |
| 1778060592 | 13.89° C | 45% | 1001.5 hPa | - | - | - | - |
| 1778059391 | 13.89° C | 44% | 1001.3 hPa | - | - | - | - |
| 1778058791 | 13.33° C | 47% | 1001.4 hPa | - | - | - | - |
| 1778056390 | 13.89° C | 47% | 1001 hPa | - | - | - | - |
| 1778055790 | 13.89° C | 48% | 1001 hPa | - | - | - | - |
| 1778052187 | 13.33° C | 49% | 1000.8 hPa | - | - | - | - |
| 1778051587 | 13.33° C | 48% | 1000.7 hPa | - | - | - | - |
| 1778050395 | 13.33° C | 48% | 1000.7 hPa | - | - | - | - |
| 1778049786 | 13.33° C | 48% | 1000.7 hPa | - | - | - | - |
| 1778048586 | 13.33° C | 50% | 1000.6 hPa | - | - | - | - |
| 1778047993 | 13.33° C | 48% | 1000.5 hPa | - | - | - | - |
| 1778046793 | 12.78° C | 49% | 1000.4 hPa | - | - | - | - |
* Rain since midnight (hover to see other rain measurements)
** Current wind speed in m/s (hover to see current wind gust speed)